User: anonymous   Login
Location: Ostrava
(49.8330°N, 18.2830°E)
Time: 07:14:35
(UTC+01:00)
Language:

NOAA 19 - Orbit

View from above orbital plane
View from above orbital plane
View from above satellite
View from above satellite

Ground track
Ground track

The orbit data is extracted from the following two-line orbital elements,

1 33591U 09005A   17080.90860098 +.00000126 +00000-0 +93321-4 0  9992
2 33591 099.0826 046.5424 0014344 153.8603 206.3294 14.12163186418073
Epoch (UTC): 21 March 2017 21:48:23
Eccentricity: 0.0014344
inclination: 99.0826°
perigee height: 841 km
apogee height: 862 km
right ascension of ascending node: 46.5424°
argument of perigee: 153.8603°
revolutions per day: 14.12163186
mean anomaly at epoch: 206.3294°
orbit number at epoch: 41807

The dashed part of the orbit path shows where the satellite is in the earth's shadow,  

DLR